Charter Quote
Worldwide +1-877-727-2538 Call
Select Language Lang
SAFETY RELIABILITY EXPERIENCE

Tateyama Airport (RJTE) - Jet Charter Services

AIRPORT INFORMATION
ICAORJTE
LOCATIONTateyama, Japan
FACILITY TYPEAIRPORT
Runway Length (ft) Width (ft) Surface Type Elevation (ft)
27/09 984 148 CON 10.00000

At Paramount Business Jets you can hire chartered private jets to and from Tateyama Airport with as little as 4 hours of notice. All flights booked via Paramount Business Jets are operated by certified direct air carriers that meet and exceed the FAA part 135 and 121 protocol or a foreign equivalent safety authority. Furthermore, Paramount Business Jets subscribes to ARGUS for their third party safety checks of operators, aircraft, and crews prior each and every flight to and from Tateyama Airport and worldwide.

  • Quote a trip using Tateyama Airport or call us 24/7 - 365 days a year at +1-877-727-2538.
Questions? Call +1-877-727-2538

METAR Weather Data at Tateyama Airport, RJTE

STATIONRJTE
OBSERVEDMon Mar 18, 14:49 UTC
NOWTue Mar 19, 20:58 UTC
AGE30:09 hr ago
WINDSW at 6 mph
VISIBILITY13 miles
CONDITIONSlight rain showers
CLOUDSmostly cloudy
TEMP54°F (12°C)
DEWPT46°F (8°C)
HUMIDITY77%
BAROMETER1019 hPa (30.09 in Hg)
METARRJTE 181449Z 22005KT 170V260 8000 -SHRA FEW008 SCT014 BKN030 12/08 Q1019 RMK 1ST008 4CU014 6SC030 A3011

Call us on +1-877-727-2538 (24 Hours) to Hire a Private Jet or Get a Quick Quote.

Find Airports Near any Location

Processing
...